Regional Weather Roundup
Issued by NWS

Home | Current Version | Previous Version | Text Only | Print | Product List | Glossary Off
Versions: 1 2 3 4 5 6 7 8 9 10 11 12 13 14 15 16 17 18 19 20 21 22 23 24 25 26 27

000
ASUS45 KSLC 192110
RWRUT

UTAH REGIONAL WEATHER ROUNDUP
NATIONAL WEATHER SERVICE SALT LAKE CITY UT
300 PM MDT SAT APR 19 2014

UTZ001>011-023>025-192200-

NORTHERN UTAH

CITY           SKY/WX    TMP DP  RH WIND       PRES   REMARKS
HILL AFB       PTSUNNY   66  36  33 W10       30.03S
LOGAN          SUNNY     66  40  38 VRB5      30.00F
OGDEN          PTSUNNY   67  38  34 W9        30.01S
PROVO AIRPORT  PTSUNNY   68  34  28 W3        30.01F
SALT LAKE CITY PTSUNNY   71  39  31 NW12      29.99S
VERNAL         PTSUNNY   66  34  30 S9        30.01F
WENDOVER       PTSUNNY   66  34  30 SE5       30.00S
HEBER CITY     MOSUNNY   70  30  23 SW13G20   30.03S
WEST JORDAN    MOSUNNY   68  45  42 NW14      30.01S

$$

UTZ012>022-026-027-192200-

SOUTHERN UTAH

CITY           SKY/WX    TMP DP  RH WIND       PRES   REMARKS
BRYCE CANYON   CLOUDY    52  35  52 E9        30.17R
CEDAR CITY     MOSUNNY   70  29  21 SW10G20   30.02F
MILFORD        SUNNY     73  25  16 E9        29.98F
MOAB/CYNLANDS  MOSUNNY   66  42  41 VRB6      30.02F
PRICE          PTSUNNY   66  34  30 S13       30.05F
ST GEORGE      PTCLDY    79  32  18 E6        29.96F
KANAB            N/A     63  39  42 SE16G24   30.09R

$$

REGIONAL REPORTS     COLORADO/ARIZONA

CITY           SKY/WX    TMP DP  RH WIND       PRES   REMARKS
CRAIG, CO      CLOUDY    56  40  55 W15       30.10R
GRAND JUNCTION PTSUNNY   61  44  53 VRB5      30.06F
RIFLE          PTSUNNY   62  37  39 W15       30.06F
MONTROSE       PTSUNNY   62  40  44 CALM      30.09F
CORTEZ         CLOUDY    62  35  36 NW10      30.08F
PAGE, AZ       PTSUNNY   71  31  22 N3        30.01F
GRAND CANYON   CLOUDY    59  35  40 NE6       30.12S
KINGMAN        LGT RAIN  68  46  45 SE6       30.00F
FLAGSTAFF      MOSUNNY   59  29  31 SW10G18   30.12F

$$

REGIONAL REPORTS    NEVADA/IDAHO/WYOMING

CITY           SKY/WX    TMP DP  RH WIND       PRES   REMARKS
LAS VEGAS, NV  MOSUNNY   81  33  17 S10       29.90F
ELY            CLOUDY    66  28  24 W17G25    30.05R
ELKO           SUNNY     71  26  18 W17G29    29.98F
POCATELLO, ID  MOSUNNY   68  20  16 NW13      29.99F
BURLEY         SUNNY     69  25  19 VRB7      29.95F
EVANSTON, WY   PTSUNNY   62  32  32 W20G25    30.08F
ROCK SPRINGS   MOSUNNY   66  27  23 W18G26    30.05F

$$



USA.gov is the U.S. government's official web portal to all federal, state and local government web resources and services.